contact:dominique.lefevre@mio.osupytheas.fr, maurice.libes@osupytheas.fr, didier.mallarino@osupytheas.fr
Project:EMSO http://www.emso-fr.org/EMSO-France
Depth: 2436.0 m
Title:EMSO Ligure Ouest : Data MII capteur MICROCAT
DateTime_Computer,Latitude,Longitude,Temperature,Conductivity,Pressure,DateTime_Instrument
DateTime_Computer,Latitude,Longitude,degC,S m-1,dbar,DateTime_Instrument
2020-12-06T00:00:05Z,42.805,6.029,13.3004,4.60077,2470.264,2020-12-06T02:01:04Z
2020-12-06T00:03:08Z,42.805,6.029,13.3004,4.60087,2470.264,2020-12-06T02:04:07Z
2020-12-06T00:06:12Z,42.805,6.029,13.3004,4.60054,2470.227,2020-12-06T02:07:10Z
2020-12-06T00:09:15Z,42.805,6.029,13.2991,4.60052,2470.227,2020-12-06T02:10:13Z
2020-12-06T00:12:18Z,42.805,6.029,13.2990,4.60059,2470.203,2020-12-06T02:13:16Z
2020-12-06T00:15:21Z,42.805,6.029,13.2995,4.60051,2470.227,2020-12-06T02:16:19Z
2020-12-06T00:18:24Z,42.805,6.029,13.2999,4.60049,2470.25,2020-12-06T02:19:22Z
2020-12-06T00:21:27Z,42.805,6.029,13.3004,4.60042,2470.24,2020-12-06T02:22:25Z
2020-12-06T00:24:30Z,42.805,6.029,13.2991,4.60060,2470.24,2020-12-06T02:25:29Z
2020-12-06T00:27:33Z,42.805,6.029,13.2996,4.60045,2470.25,2020-12-06T02:28:32Z
2020-12-06T00:30:37Z,42.805,6.029,13.2994,4.60048,2470.227,2020-12-06T02:31:35Z
2020-12-06T00:33:40Z,42.805,6.029,13.3001,4.60057,2470.203,2020-12-06T02:34:38Z
2020-12-06T00:36:43Z,42.805,6.029,13.3012,4.60064,2470.24,2020-12-06T02:37:41Z
2020-12-06T00:39:46Z,42.805,6.029,13.3007,4.60089,2470.203,2020-12-06T02:40:44Z
2020-12-06T00:42:49Z,42.805,6.029,13.3004,4.60076,2470.217,2020-12-06T02:43:47Z
2020-12-06T00:45:52Z,42.805,6.029,13.3013,4.60103,2470.24,2020-12-06T02:46:50Z
2020-12-06T00:48:55Z,42.805,6.029,13.3006,4.60077,2470.217,2020-12-06T02:49:53Z
2020-12-06T00:51:58Z,42.805,6.029,13.2994,4.60067,2470.203,2020-12-06T02:52:57Z
2020-12-06T00:55:02Z,42.805,6.029,13.2997,4.60068,2470.24,2020-12-06T02:56:00Z
2020-12-06T00:58:05Z,42.805,6.029,13.3015,4.60081,2470.18,2020-12-06T02:59:03Z
2020-12-06T01:01:08Z,42.805,6.029,13.3004,4.60052,2470.194,2020-12-06T03:02:06Z
2020-12-06T01:04:11Z,42.805,6.029,13.2993,4.60037,2470.18,2020-12-06T03:05:09Z
2020-12-06T01:07:14Z,42.805,6.029,13.2991,4.60031,2470.194,2020-12-06T03:08:12Z
2020-12-06T01:10:17Z,42.805,6.029,13.3009,4.60040,2470.217,2020-12-06T03:11:15Z
2020-12-06T01:13:20Z,42.805,6.029,13.2998,4.60024,2470.203,2020-12-06T03:14:18Z
2020-12-06T01:16:23Z,42.805,6.029,13.2996,4.60023,2470.203,2020-12-06T03:17:21Z
2020-12-06T01:19:26Z,42.805,6.029,13.2988,4.60034,2470.264,2020-12-06T03:20:25Z
2020-12-06T01:22:30Z,42.805,6.029,13.2993,4.60019,2470.194,2020-12-06T03:23:28Z
2020-12-06T01:25:33Z,42.805,6.029,13.3000,4.60025,2470.18,2020-12-06T03:26:31Z
2020-12-06T01:28:36Z,42.805,6.029,13.2996,4.60041,2470.147,2020-12-06T03:29:34Z
2020-12-06T01:31:39Z,42.805,6.029,13.2992,4.60044,2470.18,2020-12-06T03:32:37Z
2020-12-06T01:34:42Z,42.805,6.029,13.3003,4.60027,2470.203,2020-12-06T03:35:40Z
2020-12-06T01:37:45Z,42.805,6.029,13.3031,4.60067,2470.217,2020-12-06T03:38:43Z
2020-12-06T01:40:48Z,42.805,6.029,13.3019,4.60067,2470.217,2020-12-06T03:41:46Z
2020-12-06T01:43:51Z,42.805,6.029,13.3028,4.60072,2470.18,2020-12-06T03:44:50Z
2020-12-06T01:46:54Z,42.805,6.029,13.3026,4.60060,2470.156,2020-12-06T03:47:53Z
2020-12-06T01:49:58Z,42.805,6.029,13.3027,4.60045,2470.194,2020-12-06T03:50:56Z
2020-12-06T01:53:01Z,42.805,6.029,13.3021,4.60060,2470.18,2020-12-06T03:53:59Z
2020-12-06T01:56:04Z,42.805,6.029,13.3032,4.60062,2470.18,2020-12-06T03:57:02Z
2020-12-06T01:59:07Z,42.805,6.029,13.3017,4.60055,2470.18,2020-12-06T04:00:05Z
2020-12-06T02:02:10Z,42.805,6.029,13.2997,4.60060,2470.133,2020-12-06T04:03:08Z
2020-12-06T02:05:13Z,42.805,6.029,13.3009,4.60066,2470.217,2020-12-06T04:06:11Z
2020-12-06T02:08:16Z,42.805,6.029,13.3013,4.60070,2470.194,2020-12-06T04:09:14Z
2020-12-06T02:11:19Z,42.805,6.029,13.3034,4.60088,2470.171,2020-12-06T04:12:18Z
2020-12-06T02:14:22Z,42.805,6.029,13.3026,4.60081,2470.171,2020-12-06T04:15:21Z
2020-12-06T02:17:26Z,42.805,6.029,13.3020,4.60051,2470.156,2020-12-06T04:18:24Z
2020-12-06T02:20:29Z,42.805,6.029,13.3036,4.60061,2470.171,2020-12-06T04:21:27Z
2020-12-06T02:23:32Z,42.805,6.029,13.3039,4.60039,2470.124,2020-12-06T04:24:30Z
2020-12-06T02:26:35Z,42.805,6.029,13.3029,4.60096,2470.171,2020-12-06T04:27:33Z
2020-12-06T02:29:38Z,42.805,6.029,13.3031,4.60092,2470.156,2020-12-06T04:30:36Z
2020-12-06T02:32:41Z,42.805,6.029,13.3041,4.60043,2470.156,2020-12-06T04:33:39Z
2020-12-06T02:35:44Z,42.805,6.029,13.3005,4.60068,2470.171,2020-12-06T04:36:43Z
2020-12-06T02:38:47Z,42.805,6.029,13.3009,4.60060,2470.171,2020-12-06T04:39:46Z
2020-12-06T02:41:51Z,42.805,6.029,13.3008,4.60079,2470.147,2020-12-06T04:42:49Z
2020-12-06T02:44:54Z,42.805,6.029,13.3024,4.60083,2470.147,2020-12-06T04:45:52Z
2020-12-06T02:47:57Z,42.805,6.029,13.3043,4.60081,2470.18,2020-12-06T04:48:55Z
2020-12-06T02:51:00Z,42.805,6.029,13.3031,4.60031,2470.194,2020-12-06T04:51:58Z
2020-12-06T02:54:03Z,42.805,6.029,13.3033,4.60034,2470.171,2020-12-06T04:55:01Z
2020-12-06T02:57:06Z,42.805,6.029,13.3029,4.60043,2470.171,2020-12-06T04:58:04Z
2020-12-06T03:00:09Z,42.805,6.029,13.3051,4.60031,2470.133,2020-12-06T05:01:08Z
2020-12-06T03:03:12Z,42.805,6.029,13.3033,4.60031,2470.194,2020-12-06T05:04:11Z
2020-12-06T03:06:16Z,42.805,6.029,13.3049,4.60026,2470.147,2020-12-06T05:07:14Z
2020-12-06T03:09:19Z,42.805,6.029,13.3013,4.60027,2470.156,2020-12-06T05:10:17Z
2020-12-06T03:12:22Z,42.805,6.029,13.3023,4.60029,2470.147,2020-12-06T05:13:20Z
2020-12-06T03:15:25Z,42.805,6.029,13.3048,4.59999,2470.156,2020-12-06T05:16:23Z
2020-12-06T03:18:28Z,42.805,6.029,13.3020,4.60029,2470.147,2020-12-06T05:19:26Z
2020-12-06T03:21:31Z,42.805,6.029,13.3025,4.60007,2470.124,2020-12-06T05:22:29Z
2020-12-06T03:24:34Z,42.805,6.029,13.3001,4.60021,2470.147,2020-12-06T05:25:32Z
2020-12-06T03:27:37Z,42.805,6.029,13.3008,4.60019,2470.171,2020-12-06T05:28:36Z
2020-12-06T03:30:40Z,42.805,6.029,13.3013,4.60017,2470.1,2020-12-06T05:31:39Z
2020-12-06T03:33:44Z,42.805,6.029,13.3019,4.60017,2470.133,2020-12-06T05:34:42Z
2020-12-06T03:36:47Z,42.805,6.029,13.3014,4.60063,2470.147,2020-12-06T05:37:45Z
2020-12-06T03:39:50Z,42.805,6.029,13.3012,4.60056,2470.171,2020-12-06T05:40:48Z
2020-12-06T03:42:53Z,42.805,6.029,13.3004,4.60018,2470.171,2020-12-06T05:43:51Z
2020-12-06T03:45:56Z,42.805,6.029,13.3020,4.60028,2470.171,2020-12-06T05:46:54Z
2020-12-06T03:48:59Z,42.805,6.029,13.3006,4.60031,2470.124,2020-12-06T05:49:57Z
2020-12-06T03:52:02Z,42.805,6.029,13.3048,4.60064,2470.147,2020-12-06T05:53:01Z
2020-12-06T03:55:05Z,42.805,6.029,13.3026,4.60033,2470.147,2020-12-06T05:56:04Z
2020-12-06T03:58:09Z,42.805,6.029,13.3041,4.60039,2470.124,2020-12-06T05:59:07Z
2020-12-06T04:01:12Z,42.805,6.029,13.3034,4.60035,2470.133,2020-12-06T06:02:10Z
2020-12-06T04:04:15Z,42.805,6.029,13.3056,4.60025,2470.171,2020-12-06T06:05:13Z
2020-12-06T04:07:18Z,42.805,6.029,13.3024,4.60034,2470.147,2020-12-06T06:08:16Z
2020-12-06T04:10:21Z,42.805,6.029,13.3059,4.60042,2470.133,2020-12-06T06:11:19Z
2020-12-06T04:13:24Z,42.805,6.029,13.3018,4.60015,2470.11,2020-12-06T06:14:22Z
2020-12-06T04:16:27Z,42.805,6.029,13.3059,4.60021,2470.124,2020-12-06T06:17:25Z
2020-12-06T04:19:30Z,42.805,6.029,13.3027,4.60040,2470.133,2020-12-06T06:20:29Z
2020-12-06T04:22:33Z,42.805,6.029,13.3036,4.60043,2470.133,2020-12-06T06:23:32Z
2020-12-06T04:25:37Z,42.805,6.029,13.3098,4.60060,2470.133,2020-12-06T06:26:35Z
2020-12-06T04:28:40Z,42.805,6.029,13.3029,4.60038,2470.124,2020-12-06T06:29:38Z
2020-12-06T04:31:43Z,42.805,6.029,13.3088,4.60016,2470.11,2020-12-06T06:32:41Z
2020-12-06T04:34:46Z,42.805,6.029,13.3051,4.60027,2470.124,2020-12-06T06:35:44Z
2020-12-06T04:37:49Z,42.805,6.029,13.3005,4.60055,2470.156,2020-12-06T06:38:47Z
2020-12-06T04:40:52Z,42.805,6.029,13.2985,4.60057,2470.11,2020-12-06T06:41:50Z
2020-12-06T04:43:55Z,42.805,6.029,13.2979,4.60026,2470.11,2020-12-06T06:44:53Z
2020-12-06T04:46:58Z,42.805,6.029,13.2979,4.60010,2470.124,2020-12-06T06:47:57Z
2020-12-06T04:50:02Z,42.805,6.029,13.2976,4.60001,2470.156,2020-12-06T06:51:00Z
2020-12-06T04:53:05Z,42.805,6.029,13.2982,4.59996,2470.171,2020-12-06T06:54:03Z
2020-12-06T04:56:08Z,42.805,6.029,13.2980,4.59993,2470.133,2020-12-06T06:57:06Z
2020-12-06T04:59:11Z,42.805,6.029,13.2979,4.59991,2470.133,2020-12-06T07:00:09Z
2020-12-06T05:02:14Z,42.805,6.029,13.2982,4.59994,2470.147,2020-12-06T07:03:12Z
2020-12-06T05:05:17Z,42.805,6.029,13.2976,4.59987,2470.11,2020-12-06T07:06:15Z
2020-12-06T05:08:20Z,42.805,6.029,13.2979,4.59990,2470.156,2020-12-06T07:09:18Z
2020-12-06T05:11:23Z,42.805,6.029,13.2980,4.59987,2470.124,2020-12-06T07:12:21Z
2020-12-06T05:14:26Z,42.805,6.029,13.2979,4.59988,2470.124,2020-12-06T07:15:25Z
2020-12-06T05:17:30Z,42.805,6.029,13.2980,4.59990,2470.133,2020-12-06T07:18:28Z
2020-12-06T05:20:33Z,42.805,6.029,13.2979,4.59992,2470.133,2020-12-06T07:21:31Z
2020-12-06T05:23:36Z,42.805,6.029,13.2979,4.59988,2470.156,2020-12-06T07:24:34Z
2020-12-06T05:26:39Z,42.805,6.029,13.2977,4.59990,2470.147,2020-12-06T07:27:37Z
2020-12-06T05:29:42Z,42.805,6.029,13.2977,4.59988,2470.11,2020-12-06T07:30:40Z
2020-12-06T05:32:45Z,42.805,6.029,13.2982,4.59988,2470.133,2020-12-06T07:33:43Z
2020-12-06T05:35:48Z,42.805,6.029,13.2980,4.59989,2470.133,2020-12-06T07:36:46Z
2020-12-06T05:38:51Z,42.805,6.029,13.2980,4.59991,2470.147,2020-12-06T07:39:50Z
2020-12-06T05:41:54Z,42.805,6.029,13.2982,4.59986,2470.147,2020-12-06T07:42:53Z
2020-12-06T05:44:58Z,42.805,6.029,13.2983,4.59987,2470.156,2020-12-06T07:45:56Z
2020-12-06T05:48:01Z,42.805,6.029,13.2979,4.59986,2470.171,2020-12-06T07:48:59Z
2020-12-06T05:51:04Z,42.805,6.029,13.2978,4.59985,2470.147,2020-12-06T07:52:02Z
2020-12-06T05:54:07Z,42.805,6.029,13.2982,4.59985,2470.133,2020-12-06T07:55:05Z
2020-12-06T05:57:10Z,42.805,6.029,13.2982,4.59986,2470.147,2020-12-06T07:58:08Z
2020-12-06T06:00:13Z,42.805,6.029,13.2982,4.59986,2470.133,2020-12-06T08:01:11Z
2020-12-06T06:03:16Z,42.805,6.029,13.2982,4.59989,2470.133,2020-12-06T08:04:14Z
2020-12-06T06:06:19Z,42.805,6.029,13.2978,4.59989,2470.124,2020-12-06T08:07:18Z
2020-12-06T06:09:22Z,42.805,6.029,13.2977,4.59986,2470.156,2020-12-06T08:10:21Z
2020-12-06T06:12:26Z,42.805,6.029,13.2979,4.59987,2470.156,2020-12-06T08:13:24Z
2020-12-06T06:15:29Z,42.805,6.029,13.2980,4.59988,2470.133,2020-12-06T08:16:27Z
2020-12-06T06:18:32Z,42.805,6.029,13.2979,4.59986,2470.156,2020-12-06T08:19:30Z
2020-12-06T06:21:35Z,42.805,6.029,13.2983,4.59986,2470.156,2020-12-06T08:22:33Z
2020-12-06T06:24:38Z,42.805,6.029,13.2981,4.59988,2470.133,2020-12-06T08:25:36Z
2020-12-06T06:27:41Z,42.805,6.029,13.2979,4.59985,2470.171,2020-12-06T08:28:39Z
2020-12-06T06:30:44Z,42.805,6.029,13.2982,4.59986,2470.156,2020-12-06T08:31:43Z
2020-12-06T06:33:47Z,42.805,6.029,13.2976,4.59988,2470.203,2020-12-06T08:34:46Z
2020-12-06T06:36:51Z,42.805,6.029,13.2982,4.59984,2470.18,2020-12-06T08:37:49Z
2020-12-06T06:39:54Z,42.805,6.029,13.2980,4.59986,2470.18,2020-12-06T08:40:52Z
2020-12-06T06:42:57Z,42.805,6.029,13.2979,4.59984,2470.147,2020-12-06T08:43:55Z
2020-12-06T06:46:00Z,42.805,6.029,13.2981,4.59984,2470.133,2020-12-06T08:46:58Z
2020-12-06T06:49:03Z,42.805,6.029,13.2982,4.59985,2470.194,2020-12-06T08:50:01Z
2020-12-06T06:52:06Z,42.805,6.029,13.2979,4.59986,2470.217,2020-12-06T08:53:04Z
2020-12-06T06:55:09Z,42.805,6.029,13.2979,4.59986,2470.203,2020-12-06T08:56:07Z
2020-12-06T06:58:12Z,42.805,6.029,13.2980,4.59984,2470.18,2020-12-06T08:59:11Z
2020-12-06T07:01:15Z,42.805,6.029,13.2982,4.59984,2470.194,2020-12-06T09:02:14Z
2020-12-06T07:04:19Z,42.805,6.029,13.2982,4.59983,2470.203,2020-12-06T09:05:17Z
2020-12-06T07:07:22Z,42.805,6.029,13.2984,4.59985,2470.156,2020-12-06T09:08:20Z
2020-12-06T07:10:25Z,42.805,6.029,13.2980,4.59984,2470.18,2020-12-06T09:11:23Z
2020-12-06T07:13:28Z,42.805,6.029,13.2982,4.59983,2470.156,2020-12-06T09:14:26Z
2020-12-06T07:16:31Z,42.805,6.029,13.2979,4.59983,2470.171,2020-12-06T09:17:29Z
2020-12-06T07:19:34Z,42.805,6.029,13.2978,4.59985,2470.217,2020-12-06T09:20:32Z
2020-12-06T07:22:37Z,42.805,6.029,13.2979,4.59985,2470.156,2020-12-06T09:23:36Z
2020-12-06T07:25:40Z,42.805,6.029,13.2983,4.59983,2470.203,2020-12-06T09:26:39Z
2020-12-06T07:28:44Z,42.805,6.029,13.2984,4.59983,2470.171,2020-12-06T09:29:42Z
2020-12-06T07:31:47Z,42.805,6.029,13.2979,4.59984,2470.18,2020-12-06T09:32:45Z
2020-12-06T07:34:50Z,42.805,6.029,13.2978,4.59982,2470.194,2020-12-06T09:35:48Z
2020-12-06T07:37:53Z,42.805,6.029,13.2980,4.59984,2470.18,2020-12-06T09:38:51Z
2020-12-06T07:40:56Z,42.805,6.029,13.2982,4.59985,2470.18,2020-12-06T09:41:54Z
2020-12-06T07:43:59Z,42.805,6.029,13.2979,4.59984,2470.194,2020-12-06T09:44:57Z
2020-12-06T07:47:02Z,42.805,6.029,13.2981,4.59987,2470.194,2020-12-06T09:48:00Z
2020-12-06T07:50:05Z,42.805,6.029,13.2977,4.59985,2470.24,2020-12-06T09:51:04Z
2020-12-06T07:53:08Z,42.805,6.029,13.2982,4.59983,2470.194,2020-12-06T09:54:07Z
2020-12-06T07:56:12Z,42.805,6.029,13.2979,4.59983,2470.24,2020-12-06T09:57:10Z
2020-12-06T07:59:15Z,42.805,6.029,13.2982,4.59983,2470.217,2020-12-06T10:00:13Z
2020-12-06T08:02:18Z,42.805,6.029,13.2979,4.59983,2470.217,2020-12-06T10:03:16Z
2020-12-06T08:05:21Z,42.805,6.029,13.2983,4.59982,2470.24,2020-12-06T10:06:19Z
2020-12-06T08:08:24Z,42.805,6.029,13.2979,4.59986,2470.227,2020-12-06T10:09:22Z
2020-12-06T08:11:27Z,42.805,6.029,13.2982,4.59983,2470.18,2020-12-06T10:12:25Z
2020-12-06T08:14:30Z,42.805,6.029,13.2978,4.59986,2470.287,2020-12-06T10:15:29Z
2020-12-06T08:17:33Z,42.805,6.029,13.2976,4.59983,2470.217,2020-12-06T10:18:32Z
2020-12-06T08:20:37Z,42.805,6.029,13.2981,4.59987,2470.203,2020-12-06T10:21:35Z
2020-12-06T08:23:40Z,42.805,6.029,13.2982,4.59983,2470.25,2020-12-06T10:24:38Z
2020-12-06T08:26:43Z,42.805,6.029,13.2980,4.59987,2470.203,2020-12-06T10:27:41Z
2020-12-06T08:29:46Z,42.805,6.029,13.2983,4.59983,2470.25,2020-12-06T10:30:44Z
2020-12-06T08:32:49Z,42.805,6.029,13.2982,4.59982,2470.264,2020-12-06T10:33:47Z
2020-12-06T08:35:52Z,42.805,6.029,13.2983,4.59984,2470.227,2020-12-06T10:36:50Z
2020-12-06T08:38:55Z,42.805,6.029,13.2982,4.59985,2470.264,2020-12-06T10:39:53Z
2020-12-06T08:41:58Z,42.805,6.029,13.2979,4.59983,2470.264,2020-12-06T10:42:57Z
2020-12-06T08:45:02Z,42.805,6.029,13.2988,4.59986,2470.25,2020-12-06T10:46:00Z
2020-12-06T08:48:05Z,42.805,6.029,13.2982,4.59987,2470.25,2020-12-06T10:49:03Z
2020-12-06T08:51:08Z,42.805,6.029,13.2982,4.59984,2470.273,2020-12-06T10:52:06Z
2020-12-06T08:54:11Z,42.805,6.029,13.2980,4.59987,2470.273,2020-12-06T10:55:09Z
2020-12-06T08:57:14Z,42.805,6.029,13.2979,4.59984,2470.227,2020-12-06T10:58:12Z
2020-12-06T09:00:17Z,42.805,6.029,13.2981,4.59983,2470.297,2020-12-06T11:01:15Z
2020-12-06T09:03:20Z,42.805,6.029,13.2982,4.59983,2470.25,2020-12-06T11:04:18Z
2020-12-06T09:06:23Z,42.805,6.029,13.2976,4.59984,2470.32,2020-12-06T11:07:22Z
2020-12-06T09:09:26Z,42.805,6.029,13.2981,4.59985,2470.273,2020-12-06T11:10:25Z
2020-12-06T09:12:30Z,42.805,6.029,13.2980,4.59983,2470.297,2020-12-06T11:13:28Z
2020-12-06T09:15:33Z,42.805,6.029,13.2978,4.59983,2470.25,2020-12-06T11:16:31Z
2020-12-06T09:18:36Z,42.805,6.029,13.2982,4.59983,2470.287,2020-12-06T11:19:34Z
2020-12-06T09:21:39Z,42.805,6.029,13.2983,4.59984,2470.297,2020-12-06T11:22:37Z
2020-12-06T09:24:42Z,42.805,6.029,13.2979,4.59983,2470.273,2020-12-06T11:25:40Z
2020-12-06T09:27:45Z,42.805,6.029,13.2982,4.59983,2470.273,2020-12-06T11:28:43Z
2020-12-06T09:30:48Z,42.805,6.029,13.2979,4.59982,2470.287,2020-12-06T11:31:47Z
2020-12-06T09:33:51Z,42.805,6.029,13.2978,4.59983,2470.287,2020-12-06T11:34:50Z
2020-12-06T09:36:55Z,42.805,6.029,13.2981,4.59983,2470.25,2020-12-06T11:37:53Z
2020-12-06T09:39:58Z,42.805,6.029,13.2981,4.59983,2470.297,2020-12-06T11:40:56Z
2020-12-06T09:43:01Z,42.805,6.029,13.2981,4.59982,2470.273,2020-12-06T11:43:59Z
2020-12-06T09:46:04Z,42.805,6.029,13.2983,4.59984,2470.287,2020-12-06T11:47:02Z
2020-12-06T09:49:07Z,42.805,6.029,13.2979,4.59984,2470.287,2020-12-06T11:50:05Z
2020-12-06T09:52:10Z,42.805,6.029,13.2979,4.59983,2470.287,2020-12-06T11:53:08Z
2020-12-06T09:55:13Z,42.805,6.029,13.2981,4.59984,2470.297,2020-12-06T11:56:12Z
2020-12-06T09:58:16Z,42.805,6.029,13.2981,4.59983,2470.343,2020-12-06T11:59:15Z
2020-12-06T10:01:20Z,42.805,6.029,13.2981,4.59983,2470.32,2020-12-06T12:02:18Z
2020-12-06T10:04:23Z,42.805,6.029,13.2981,4.59983,2470.273,2020-12-06T12:05:21Z
2020-12-06T10:07:26Z,42.805,6.029,13.2979,4.59984,2470.273,2020-12-06T12:08:24Z
2020-12-06T10:10:29Z,42.805,6.029,13.2982,4.59986,2470.32,2020-12-06T12:11:27Z
2020-12-06T10:13:32Z,42.805,6.029,13.2983,4.59984,2470.31,2020-12-06T12:14:30Z
2020-12-06T10:16:35Z,42.805,6.029,13.2979,4.59983,2470.297,2020-12-06T12:17:33Z
2020-12-06T10:19:38Z,42.805,6.029,13.2982,4.59983,2470.32,2020-12-06T12:20:37Z
2020-12-06T10:22:41Z,42.805,6.029,13.2981,4.59988,2470.297,2020-12-06T12:23:40Z
2020-12-06T10:25:45Z,42.805,6.029,13.2979,4.59985,2470.334,2020-12-06T12:26:43Z
2020-12-06T10:28:48Z,42.805,6.029,13.2979,4.59992,2470.32,2020-12-06T12:29:46Z
2020-12-06T10:31:51Z,42.805,6.029,13.2983,4.59983,2470.32,2020-12-06T12:32:49Z
2020-12-06T10:34:54Z,42.805,6.029,13.2983,4.59986,2470.357,2020-12-06T12:35:52Z
2020-12-06T10:37:57Z,42.805,6.029,13.2978,4.59985,2470.343,2020-12-06T12:38:55Z
2020-12-06T10:41:00Z,42.805,6.029,13.2979,4.59985,2470.343,2020-12-06T12:41:58Z
2020-12-06T10:44:03Z,42.805,6.029,13.2981,4.59986,2470.31,2020-12-06T12:45:02Z
2020-12-06T10:47:06Z,42.805,6.029,13.2983,4.59984,2470.32,2020-12-06T12:48:05Z
2020-12-06T10:50:10Z,42.805,6.029,13.2980,4.59986,2470.297,2020-12-06T12:51:08Z
2020-12-06T10:53:13Z,42.805,6.029,13.2982,4.59983,2470.343,2020-12-06T12:54:11Z
2020-12-06T10:56:16Z,42.805,6.029,13.2979,4.59985,2470.297,2020-12-06T12:57:14Z
2020-12-06T10:59:19Z,42.805,6.029,13.2982,4.59983,2470.32,2020-12-06T13:00:17Z
2020-12-06T11:02:22Z,42.805,6.029,13.2976,4.59988,2470.343,2020-12-06T13:03:20Z
2020-12-06T11:05:25Z,42.805,6.029,13.2982,4.59983,2470.32,2020-12-06T13:06:23Z
2020-12-06T11:08:28Z,42.805,6.029,13.2982,4.59983,2470.32,2020-12-06T13:09:26Z
2020-12-06T11:11:31Z,42.805,6.029,13.2983,4.59983,2470.32,2020-12-06T13:12:30Z
2020-12-06T11:14:34Z,42.805,6.029,13.2977,4.59984,2470.334,2020-12-06T13:15:33Z
2020-12-06T11:17:38Z,42.805,6.029,13.2982,4.59983,2470.297,2020-12-06T13:18:36Z
2020-12-06T11:20:41Z,42.805,6.029,13.2983,4.59983,2470.32,2020-12-06T13:21:39Z
2020-12-06T11:23:44Z,42.805,6.029,13.2983,4.59983,2470.32,2020-12-06T13:24:42Z
2020-12-06T11:26:47Z,42.805,6.029,13.2980,4.59984,2470.297,2020-12-06T13:27:45Z
2020-12-06T11:29:50Z,42.805,6.029,13.2978,4.59984,2470.273,2020-12-06T13:30:48Z
2020-12-06T11:32:53Z,42.805,6.029,13.2981,4.59984,2470.334,2020-12-06T13:33:51Z
2020-12-06T11:35:56Z,42.805,6.029,13.2980,4.59983,2470.32,2020-12-06T13:36:55Z
2020-12-06T11:39:00Z,42.805,6.029,13.2980,4.59983,2470.32,2020-12-06T13:39:58Z
2020-12-06T11:42:03Z,42.805,6.029,13.2983,4.59985,2470.357,2020-12-06T13:43:01Z
2020-12-06T11:45:06Z,42.805,6.029,13.2979,4.59983,2470.32,2020-12-06T13:46:04Z
2020-12-06T11:48:09Z,42.805,6.029,13.2980,4.59986,2470.357,2020-12-06T13:49:07Z
2020-12-06T11:51:12Z,42.805,6.029,13.2982,4.59984,2470.297,2020-12-06T13:52:10Z
2020-12-06T11:54:15Z,42.805,6.029,13.2982,4.59987,2470.297,2020-12-06T13:55:13Z
2020-12-06T11:57:18Z,42.805,6.029,13.2982,4.59986,2470.32,2020-12-06T13:58:16Z
2020-12-06T12:00:21Z,42.805,6.029,13.2981,4.59983,2470.31,2020-12-06T14:01:20Z
2020-12-06T12:03:24Z,42.805,6.029,13.2980,4.59984,2470.343,2020-12-06T14:04:23Z
2020-12-06T12:06:28Z,42.805,6.029,13.2983,4.59986,2470.32,2020-12-06T14:07:26Z
2020-12-06T12:09:31Z,42.805,6.029,13.2981,4.59983,2470.343,2020-12-06T14:10:29Z
2020-12-06T12:12:34Z,42.805,6.029,13.2980,4.59987,2470.32,2020-12-06T14:13:32Z
2020-12-06T12:15:37Z,42.805,6.029,13.2979,4.59983,2470.287,2020-12-06T14:16:35Z
2020-12-06T12:18:40Z,42.805,6.029,13.2980,4.59983,2470.297,2020-12-06T14:19:38Z
2020-12-06T12:21:43Z,42.805,6.029,13.2982,4.59985,2470.31,2020-12-06T14:22:41Z
2020-12-06T12:24:46Z,42.805,6.029,13.2982,4.59986,2470.26,2020-12-06T14:25:44Z
2020-12-06T12:27:49Z,42.805,6.029,13.2982,4.59984,2470.32,2020-12-06T14:28:48Z
2020-12-06T12:30:53Z,42.805,6.029,13.2980,4.59984,2470.297,2020-12-06T14:31:51Z
2020-12-06T12:33:56Z,42.805,6.029,13.2976,4.59984,2470.31,2020-12-06T14:34:54Z
2020-12-06T12:36:59Z,42.805,6.029,13.2977,4.59985,2470.273,2020-12-06T14:37:57Z
2020-12-06T12:40:02Z,42.805,6.029,13.2982,4.59985,2470.273,2020-12-06T14:41:00Z
2020-12-06T12:43:05Z,42.805,6.029,13.2981,4.59984,2470.31,2020-12-06T14:44:03Z
2020-12-06T12:46:08Z,42.805,6.029,13.2981,4.59985,2470.273,2020-12-06T14:47:06Z
2020-12-06T12:49:11Z,42.805,6.029,13.2976,4.59983,2470.31,2020-12-06T14:50:09Z
2020-12-06T12:52:14Z,42.805,6.029,13.2980,4.59991,2470.273,2020-12-06T14:53:13Z
2020-12-06T12:55:17Z,42.805,6.029,13.2982,4.59985,2470.31,2020-12-06T14:56:16Z
2020-12-06T12:58:21Z,42.805,6.029,13.2982,4.59988,2470.25,2020-12-06T14:59:19Z
2020-12-06T13:01:24Z,42.805,6.029,13.2983,4.59984,2470.297,2020-12-06T15:02:22Z
2020-12-06T13:04:27Z,42.805,6.029,13.2983,4.59985,2470.287,2020-12-06T15:05:25Z
2020-12-06T13:07:30Z,42.805,6.029,13.2989,4.59985,2470.287,2020-12-06T15:08:28Z
2020-12-06T13:10:33Z,42.805,6.029,13.2982,4.59986,2470.297,2020-12-06T15:11:31Z
2020-12-06T13:13:36Z,42.805,6.029,13.3004,4.59989,2470.31,2020-12-06T15:14:34Z
2020-12-06T13:16:39Z,42.805,6.029,13.2990,4.59999,2470.25,2020-12-06T15:17:38Z
2020-12-06T13:19:42Z,42.805,6.029,13.2996,4.60006,2470.287,2020-12-06T15:20:41Z
2020-12-06T13:22:46Z,42.805,6.029,13.2987,4.59995,2470.32,2020-12-06T15:23:44Z
2020-12-06T13:25:49Z,42.805,6.029,13.2996,4.60000,2470.273,2020-12-06T15:26:47Z
2020-12-06T13:28:52Z,42.805,6.029,13.2982,4.59989,2470.297,2020-12-06T15:29:50Z
2020-12-06T13:31:55Z,42.805,6.029,13.2987,4.59987,2470.273,2020-12-06T15:32:53Z
2020-12-06T13:34:58Z,42.805,6.029,13.2991,4.59989,2470.297,2020-12-06T15:35:56Z
2020-12-06T13:38:01Z,42.805,6.029,13.2995,4.59993,2470.297,2020-12-06T15:38:59Z
2020-12-06T13:41:04Z,42.805,6.029,13.2983,4.59988,2470.287,2020-12-06T15:42:03Z
2020-12-06T13:44:07Z,42.805,6.029,13.2990,4.59996,2470.287,2020-12-06T15:45:06Z
2020-12-06T13:47:11Z,42.805,6.029,13.2983,4.59997,2470.273,2020-12-06T15:48:09Z
2020-12-06T13:50:14Z,42.805,6.029,13.2979,4.59985,2470.227,2020-12-06T15:51:12Z
2020-12-06T13:53:17Z,42.805,6.029,13.2984,4.59985,2470.25,2020-12-06T15:54:15Z
2020-12-06T13:56:20Z,42.805,6.029,13.2998,4.60019,2470.273,2020-12-06T15:57:18Z
2020-12-06T13:59:23Z,42.805,6.029,13.3020,4.60014,2470.273,2020-12-06T16:00:21Z
2020-12-06T14:02:26Z,42.805,6.029,13.3000,4.59995,2470.264,2020-12-06T16:03:24Z
2020-12-06T14:05:29Z,42.805,6.029,13.2992,4.60002,2470.31,2020-12-06T16:06:28Z
2020-12-06T14:08:32Z,42.805,6.029,13.2988,4.59990,2470.287,2020-12-06T16:09:31Z
2020-12-06T14:11:36Z,42.805,6.029,13.3003,4.60004,2470.287,2020-12-06T16:12:34Z
2020-12-06T14:14:39Z,42.805,6.029,13.3005,4.60017,2470.264,2020-12-06T16:15:37Z
2020-12-06T14:17:42Z,42.805,6.029,13.3011,4.60010,2470.236,2020-12-06T16:18:40Z
2020-12-06T14:20:45Z,42.805,6.029,13.3011,4.60026,2470.273,2020-12-06T16:21:43Z
2020-12-06T14:23:48Z,42.805,6.029,13.2996,4.60021,2470.25,2020-12-06T16:24:46Z
2020-12-06T14:26:51Z,42.805,6.029,13.3006,4.60026,2470.25,2020-12-06T16:27:49Z
2020-12-06T14:29:54Z,42.805,6.029,13.2994,4.60017,2470.264,2020-12-06T16:30:52Z
2020-12-06T14:32:57Z,42.805,6.029,13.3001,4.60009,2470.264,2020-12-06T16:33:56Z
2020-12-06T14:36:01Z,42.805,6.029,13.3001,4.60001,2470.25,2020-12-06T16:36:59Z
2020-12-06T14:39:04Z,42.805,6.029,13.3000,4.60024,2470.25,2020-12-06T16:40:02Z
2020-12-06T14:42:07Z,42.805,6.029,13.3006,4.60007,2470.25,2020-12-06T16:43:05Z
2020-12-06T14:45:10Z,42.805,6.029,13.3003,4.60029,2470.25,2020-12-06T16:46:08Z
2020-12-06T14:48:13Z,42.805,6.029,13.3006,4.60035,2470.227,2020-12-06T16:49:11Z
2020-12-06T14:51:16Z,42.805,6.029,13.3006,4.60012,2470.203,2020-12-06T16:52:14Z
2020-12-06T14:54:19Z,42.805,6.029,13.3006,4.60014,2470.24,2020-12-06T16:55:17Z
2020-12-06T14:57:22Z,42.805,6.029,13.2995,4.60026,2470.227,2020-12-06T16:58:21Z
2020-12-06T15:00:26Z,42.805,6.029,13.2997,4.60040,2470.227,2020-12-06T17:01:24Z